Overview Statistics Trail Chart Weather Telemetry Raw packets
 

This is the latest recevied weather packets stored in our database for station/object JE6MIQ-13. If no packets are shown the sender has not sent any weather packets the latest 10 day(s).

<< 1 2 3 4 >>
Time Temp. Humidity Pressure Rain* Wind** Luminosity Snow
1788617976 26.67° C 37% 1005.1 hPa 0 mm - - -
1788617077 26.67° C 37% 1005 hPa 0 mm - - -
1788616176 27.22° C 34% 1005 hPa 0 mm - - -
1788615277 27.22° C 33% 1005 hPa 0 mm - - -
1788614377 27.22° C 32% 1005.3 hPa 0 mm - - -
1788613477 27.22° C 32% 1005.1 hPa 0 mm - - -
1788612576 27.22° C 31% 1005.4 hPa 0 mm - - -
1788611677 27.22° C 29% 1005.2 hPa 0 mm - - -
1788610778 27.22° C 28% 1005 hPa 0 mm - - -
1788609878 27.22° C 27% 1004.8 hPa 0 mm - - -
1788608977 27.78° C 25% 1004.9 hPa 0 mm - - -
1788608076 27.22° C 25% 1004.6 hPa 0 mm - - -
1788607177 27.22° C 25% 1004.6 hPa 0 mm - - -
1788606278 27.22° C 26% 1004.6 hPa 0 mm - - -
1788605377 27.22° C 25% 1004.3 hPa 0 mm - - -
1788604476 27.22° C 25% 1004.2 hPa 0 mm - - -
1788603576 27.78° C 26% 1004.3 hPa 0 mm - - -
1788602676 27.78° C 26% 1004.6 hPa 0 mm - - -
1788601777 27.78° C 26% 1004.6 hPa 0 mm - - -
1788600877 27.78° C 25% 1004.6 hPa 0 mm - - -
1788599977 27.78° C 27% 1004.5 hPa 0 mm - - -
1788599077 27.78° C 26% 1004.1 hPa 0 mm - - -
1788598176 27.78° C 26% 1004.3 hPa 0 mm - - -
1788597277 28.33° C 25% 1003.7 hPa 0 mm - - -
1788596376 28.33° C 25% 1003.3 hPa 0 mm - - -

* Rain latest hour (hover to see other rain measurements)
** Current wind speed in m/s (hover to see current wind gust speed)